This demonstration page uses our WeatherBlox Daily Observations layout. Learn more.

Left ArrowRight Arrow

44.8408, -93.29828

Hourly Observations for May 2, 2015

Temp ( °F °C ) Dew Point ( °F °C ) Humidity (%) Winds ( mph kmh ) Pressure ( in mb ) Visibility ( mi km ) Precip ( " mm )
12:53 am 00:53 Clear 59 15 46 7.8 62 62 SSW 8 13 29.96 1015 10 16 0.00 0.00
1:53 am 01:53 Clear 58 14.4 46 7.8 65 65 SW 10 17 29.97 1015 10 16 0.00 0.00
2:53 am 02:53 Clear 57 13.9 46 7.8 67 67 SW 7 11 29.97 1015 10 16 0.00 0.00
3:53 am 03:53 Clear 54 12.2 45 7.2 72 72 S 3 6 29.96 1015 10 16 0.00 0.00
4:53 am 04:53 Clear 54 12.2 45 7.2 72 72 S 6 9 29.95 1014 10 16 0.00 0.00
5:53 am 05:53 Clear 52 11.1 45 7.2 77 77 S 5 7 29.94 1014 10 16 0.00 0.00
6:53 am 06:53 Sunny 52 11.1 45 7.2 77 77 S 5 7 29.94 1014 10 16 0.00 0.00
7:53 am 07:53 Sunny 55 12.8 46 7.8 72 72 S 6 9 29.94 1014 10 16 0.00 0.00
8:53 am 08:53 Sunny 58 14.4 46 7.8 65 65 S 5 7 29.93 1014 10 16 0.00 0.00
9:53 am 09:53 Sunny 64 17.8 47 8.3 54 54 VRB 5 7 29.91 1013 10 16 0.00 0.00
10:53 am 10:53 Sunny 69 20.6 48 8.9 47 47 SSW 7 11 29.90 1013 10 16 0.00 0.00
11:53 am 11:53 Sunny 72 22.2 48 8.9 43 43 VRB 5 7 29.88 1012 10 16 0.00 0.00
12:53 pm 12:53 Partly Cloudy 75 23.9 48 8.9 39 39 S 10 17 29.86 1011 10 16 0.00 0.00
1:53 pm 13:53 Partly Cloudy 78 25.6 44 6.7 30 30 SSW 12 19 29.83 1010 10 16 0.00 0.00
2:53 pm 14:53 Partly Cloudy 78 25.6 44 6.7 30 30 SW 14 22 29.80 1009 10 16 0.00 0.00
3:53 pm 15:53 Partly Cloudy 78 25.6 44 6.7 30 30 S 8 13 29.78 1008 10 16 0.00 0.00
4:53 pm 16:53 Mostly Sunny 80 26.7 42 5.6 26 26 SSW 10 17 29.76 1008 10 16 0.00 0.00
5:53 pm 17:53 Mostly Sunny 80 26.7 42 5.6 26 26 SSW 13 20 29.75 1007 10 16 0.00 0.00
6:53 pm 18:53 Mostly Sunny 78 25.6 43 6.1 29 29 S 6 9 29.73 1007 10 16 0.00 0.00
7:53 pm 19:53 Mostly Sunny 75 23.9 44 6.7 33 33 SE 7 11 29.72 1006 10 16 0.00 0.00
8:53 pm 20:53 Mostly Clear 75 23.9 46 7.8 36 36 SSW 13 20 29.73 1007 10 16 0.00 0.00
9:53 pm 21:53 Mostly Clear 72 22.2 49 9.4 44 44 SSW 10 17 29.75 1008 10 16 0.00 0.00
10:53 pm 22:53 Partly Cloudy 71 21.7 50 10 47 47 SSW 12 19 29.76 1008 10 16 0.00 0.00
11:53 pm 23:53 Partly Cloudy 68 20 52 11.1 57 57 S 12 19 29.77 1008 10 16 0.00 0.00

Powered by AerisWeather